This is the latest recevied weather packets stored in our database for station/object KF7MJQ-10. If no packets are shown the sender has not sent any weather packets the latest 10 day(s).
| Time | Temp. | Humidity | Pressure | Rain* | Wind** | Luminosity | Snow |
|---|---|---|---|---|---|---|---|
| 1778381132 | 13.89° C | 1% | 1016.4 hPa | 0 mm | - | - | - |
| 1778380829 | 14.44° C | 1% | 1016.3 hPa | 0 mm | - | - | - |
| 1778379605 | 14.44° C | 1% | 1016.3 hPa | 0 mm | - | - | - |
| 1778376934 | 15.56° C | 1% | 1016.6 hPa | 0 mm | - | - | - |
| 1778376316 | 15.56° C | 1% | 1016.8 hPa | 0 mm | - | - | - |
| 1778375410 | 15.56° C | 1% | 1016.9 hPa | 0 mm | - | - | - |
| 1778374849 | 16.11° C | 1% | 1017.1 hPa | 0 mm | - | - | - |
| 1778374547 | 16.11° C | 1% | 1017.2 hPa | 0 mm | - | - | - |
| 1778372121 | 17.22° C | 1% | 1017.4 hPa | 0 mm | - | - | - |
| 1778371820 | 17.22° C | 1% | 1017.5 hPa | 0 mm | - | - | - |
| 1778368202 | 17.78° C | 1% | 1018.2 hPa | 0 mm | - | - | - |
| 1778363742 | 18.33° C | 1% | 1019.1 hPa | 0 mm | - | - | - |
| 1778361028 | 18.33° C | 14% | 1019.2 hPa | 0 mm | - | - | - |
| 1778357434 | 18.33° C | 2% | 1020 hPa | 0 mm | - | - | - |
| 1778354748 | 17.78° C | 1% | 1020.2 hPa | 0 mm | - | - | - |
| 1778354445 | 17.22° C | 1% | 1020.2 hPa | 0 mm | - | - | - |
| 1778351713 | 17.78° C | 1% | 1020.5 hPa | 0 mm | - | - | - |
| 1778349327 | 17.22° C | 1% | 1020.6 hPa | 0 mm | - | - | - |
| 1778349026 | 17.22° C | 1% | 1020.7 hPa | 0 mm | - | - | - |
| 1778346353 | 15.56° C | 1% | 1020.8 hPa | 0 mm | - | - | - |
| 1778341841 | 13.33° C | 1% | 1021.1 hPa | 0 mm | - | - | - |
| 1778337048 | 12.22° C | 1% | 1021.3 hPa | 0 mm | - | - | - |
| 1778335826 | 11.67° C | 1% | 1021.4 hPa | 0 mm | - | - | - |
| 1778333714 | - | - | 1021.4 hPa | 0 mm | - | - | - |
| 1778331906 | - | - | 1021.3 hPa | 0 mm | - | - | - |
* Rain latest hour (hover to see other rain measurements)
** Current wind speed in m/s (hover to see current wind gust speed)